Notices

What's New in latest Release from April 7th, 2021:

- Updated Glossary, including Speed of Maximum Gust, and Total Hourly Precipitation

- Updated national and regional climate services offices contacts and prices information

- Addition of station inventory lists for 1981-2010, 1971-2000, and 1961-1990 Normals.

If you haven't already, please take our survey and provide feedback about our website: https://eccc.sondage-survey.ca/f/LanguageSelection.aspx?s=442ca660-fcf1-47c0-95a9-59707d6fd709

Hourly Data Report for August 14, 2020

TORONTO CITY
ONTARIO
Current Station Operator: ECCC - MSC

43°40'00.000" N
79°24'00.000" W
112.50 m
6158355
71508
XTO

Download Data

Hourly Data (August 2020)
Hourly Data Report for August 14, 2020
TIME
LST
Temp Definition
°C
Dew Point Definition
°C
Rel Hum Definition
%
Precip. Amount Definition
mm

Wind Dir Definition
10's deg

Wind Spd Definition
km/h
Visibility Definition
km
Stn Press Definition
kPa
Hmdx Definition


Wind Chill Definition


Weather Definition


00:00 24.4 11.7 45 0.0       100.59 27   LegendNANA
01:00 23.7 11.7 47 0.0       100.60 26   LegendNANA
02:00 23.3 11.6 48 0.0       100.59 25   LegendNANA
03:00 23.1 11.7 49 0.0       100.58 25   LegendNANA
04:00 23.2 12.6 51 0.0       100.57 26   LegendNANA
05:00 22.4 13.0 55 0.0       100.59 25   LegendNANA
06:00 22.0 14.0 60 0.0       100.62 25   LegendNANA
07:00 23.0 13.6 55 0.0       100.66 26   LegendNANA
08:00 24.6 12.4 47 0.0       100.67 27   LegendNANA
09:00 25.8 11.9 42 0.0       100.68 28   LegendNANA
10:00 26.1 10.4 37 0.0       100.70 28   LegendNANA
11:00 27.1 10.8 36 0.0       100.68 29   LegendNANA
12:00 27.8 9.2 31 0.0       100.64 29   LegendNANA
13:00 28.0 9.5 31 0.0       100.64 29   LegendNANA
14:00 27.5 8.7 31 0.0       100.58 28   LegendNANA
15:00 27.5 9.1 32 0.0       100.53 28   LegendNANA
16:00 27.2 10.0 34 0.0       100.46 28   LegendNANA
17:00 26.5 9.7 35 0.0       100.43 28   LegendNANA
18:00 25.9 10.3 37 0.0       100.40 27   LegendNANA
19:00 25.4 10.1 38 0.0       100.41 27   LegendNANA
20:00 24.0 9.2 39 0.0       100.44 25   LegendNANA
21:00 24.3 10.2 41 0.0       100.45 26   LegendNANA
22:00 22.2 10.8 49 0.0       100.45     LegendNANA
23:00 22.5 11.0 48 0.0       100.43     LegendNANA

Notes on Data Quality.

Legend

  • E = Estimated
  • M = Missing
  • NA = Not Available*
  • [empty] = Indicates an unobserved value
Date modified: